QPF
0.00 0.00 0.00 0.00 0.00 0.00 0.00 0.00 0.00 0.00 0.00 0.00 0.00 0.00 0.00 0.00 0.00 0.00 0.00 0.00 0.00 0.00 0.00 0.00 0.00 0.00 0.00 0.00 0.00 0.00 0.00 0.00 0.00 0.00 0.00 0.00 0.00 0.00 0.00 0.01 0.00 0.00 0.00 0.00
0.00 0.00 0.00 0.00 0.00 0.00 0.00 0.00 0.00 0.00 0.00 0.00 0.00 0.00 0.00 0.00 0.00 0.00 0.00 0.00 0.00 0.00 0.00 0.00 0.00 0.00 0.00 0.00 0.00 0.00 0.00 0.00 0.00 0.00 0.00 0.02 0.00 0.02 0.03 0.03 0.12 0.12 0.03 0.02
0.00 0.00 0.00 0.00 0.00 0.00 0.00 0.00 0.00 0.00 0.01 0.00 0.00 0.00 0.00 0.00 0.00 0.00 0.00 0.00 0.00 0.00 0.00 0.00 0.00 0.00 0.00 0.00 0.00 0.00 0.00 0.00 0.00 0.00 0.00 0.02 0.04 0.09 0.07 0.21 0.21 0.08 0.02 0.03
0.00 0.00 0.00 0.00 0.00 0.00 0.00 0.00 0.00 0.02 0.02 0.00 0.00 0.00 0.00 0.00 0.00 0.00 0.00 0.00 0.00 0.00 0.00 0.00 0.00 0.00 0.00 0.00 0.00 0.00 0.00 0.00 0.00 0.00 0.00 0.03 0.07 0.07 0.16 0.11 0.08 0.10 0.11 0.09
0.00 0.00 0.00 0.00 0.00 0.00 0.00 0.00 0.00 0.01 0.03 0.05 0.02 0.02 0.01 0.01 0.01 0.00 0.00 0.00 0.00 0.00 0.00 0.01 0.03 0.06 0.05 0.01 0.00 0.00 0.00 0.00 0.00 0.00 0.00 0.01 0.02 0.05 0.04 0.01 0.01 0.03 0.09 0.06
0.00 0.00 0.00 0.00 0.00 0.00 0.00 0.00 0.00 0.01 0.02 0.06 0.08 0.08 0.07 0.01 0.02 0.02 0.00 0.00 0.00 0.00 0.00 0.01 0.15 0.23 0.17 0.10 0.04 0.00 0.00 0.00 0.00 0.01 0.02 0.01 0.01 0.01 0.00 0.00 0.00 0.00 0.00 0.00
0.00 0.00 0.01 0.00 0.00 0.01 0.03 0.00 0.00 0.00 0.01 0.04 0.08 0.06 0.08 0.09 0.02 0.01 0.01 0.00 0.00 0.01 0.01 0.01 0.08 0.30 0.37 0.23 0.11 0.10 0.04 0.00 0.00 0.00 0.00 0.00 0.00 0.00 0.00 0.00 0.00 0.00 0.00 0.00
0.00 0.00 0.01 0.00 0.00 0.00 0.00 0.00 0.00 0.00 0.00 0.02 0.06 0.07 0.06 0.06 0.02 0.00 0.00 0.00 0.00 0.00 0.01 0.03 0.02 0.12 0.29 0.29 0.24 0.25 0.15 0.04 0.00 0.00 0.01 0.00 0.00 0.00 0.00 0.00 0.00 0.00 0.00 0.00
0.00 0.00 0.00 0.00 0.00 0.01 0.00 0.00 0.00 0.00 0.00 0.00 0.01 0.02 0.03 0.03 0.05 0.06 0.03 0.03 0.03 0.00 0.00 0.00 0.01 0.02 0.13 0.23 0.22 0.20 0.11 0.03 0.00 0.00 0.01 0.01 0.01 0.00 0.00 0.00 0.00 0.00 0.00 0.00
0.00 0.00 0.00 0.00 0.02 0.01 0.00 0.00 0.00 0.00 0.00 0.00 0.00 0.00 0.00 0.01 0.02 0.03 0.05 0.04 0.02 0.01 0.00 0.00 0.00 0.04 0.16 0.21 0.15 0.14 0.05 0.01 0.00 0.00 0.00 0.00 0.00 0.00 0.00 0.00 0.00 0.00 0.00 0.00
0.00 0.00 0.00 0.00 0.00 0.00 0.00 0.00 0.00 0.00 0.00 0.00 0.00 0.00 0.00 0.00 0.00 0.02 0.02 0.05 0.04 0.01 0.00 0.00 0.04 0.07 0.17 0.18 0.10 0.09 0.02 0.01 0.00 0.00 0.00 0.00 0.00 0.00 0.00 0.00 0.00 0.00 0.00 0.00
0.00 0.00 0.00 0.00 0.00 0.00 0.00 0.00 0.00 0.00 0.00 0.00 0.00 0.00 0.00 0.00 0.00 0.00 0.01 0.02 0.05 0.02 0.02 0.03 0.04 0.11 0.24 0.29 0.12 0.06 0.03 0.02 0.00 0.00 0.00 0.00 0.00 0.00 0.00 0.00 0.00 0.00 0.00 0.00
0.00 0.00 0.00 0.00 0.00 0.00 0.00 0.00 0.00 0.00 0.00 0.00 0.00 0.00 0.00 0.00 0.00 0.00 0.00 0.02 0.04 0.05 0.01 0.10 0.10 0.10 0.15 0.35 0.37 0.27 0.14 0.07 0.01 0.00 0.00 0.00 0.00 0.00 0.00 0.00 0.00 0.00 0.00 0.00
0.00 0.00 0.00 0.00 0.00 0.00 0.00 0.00 0.00 0.00 0.00 0.00 0.00 0.00 0.00 0.00 0.00 0.00 0.00 0.00 0.02 0.07 0.03 0.07 0.19 0.14 0.05 0.09 0.24 0.20 0.12 0.04 0.00 0.00 0.00 0.00 0.00 0.00 0.00 0.00 0.00 0.00 0.00 0.00
0.00 0.00 0.00 0.00 0.00 0.00 0.00 0.00 0.00 0.00 0.00 0.00 0.02 0.00 0.00 0.00 0.00 0.00 0.00 0.00 0.04 0.07 0.05 0.03 0.07 0.12 0.07 0.01 0.03 0.03 0.00 0.00 0.00 0.00 0.00 0.00 0.00 0.00 0.00 0.00 0.00 0.00 0.00 0.00
0.00 0.00 0.00 0.00 0.00 0.00 0.00 0.01 0.01 0.00 0.00 0.01 0.04 0.01 0.01 0.01 0.01 0.01 0.01 0.01 0.08 0.05 0.05 0.03 0.05 0.07 0.05 0.03 0.02 0.01 0.01 0.01 0.00 0.01 0.01 0.00 0.00 0.00 0.00 0.00 0.00 0.00 0.00 0.00
0.00 0.00 0.00 0.00 0.00 0.00 0.00 0.00 0.00 0.00 0.01 0.01 0.02 0.07 0.11 0.06 0.03 0.01 0.03 0.05 0.07 0.11 0.08 0.03 0.03 0.05 0.10 0.12 0.11 0.06 0.03 0.00 0.00 0.00 0.00 0.00 0.00 0.00 0.00 0.00 0.00 0.00 0.00 0.00
0.00 0.01 0.01 0.02 0.04 0.03 0.00 0.01 0.01 0.01 0.03 0.01 0.02 0.09 0.19 0.15 0.13 0.04 0.02 0.06 0.06 0.14 0.11 0.12 0.08 0.06 0.04 0.05 0.07 0.04 0.00 0.00 0.00 0.00 0.00 0.00 0.00 0.00 0.00 0.00 0.00 0.00 0.00 0.00
0.04 0.03 0.01 0.04 0.07 0.06 0.04 0.01 0.00 0.03 0.05 0.04 0.01 0.02 0.08 0.06 0.10 0.10 0.06 0.03 0.02 0.04 0.10 0.12 0.14 0.08 0.05 0.04 0.03 0.01 0.02 0.04 0.02 0.01 0.00 0.01 0.00 0.01 0.00 0.00 0.00 0.00 0.00 0.00
0.03 0.02 0.01 0.03 0.05 0.05 0.02 0.02 0.00 0.01 0.01 0.04 0.04 0.01 0.03 0.03 0.04 0.05 0.01 0.01 0.06 0.06 0.02 0.06 0.11 0.07 0.04 0.02 0.02 0.01 0.02 0.03 0.02 0.01 0.00 0.00 0.00 0.02 0.01 0.00 0.00 0.00 0.00 0.00
0.02 0.00 0.00 0.03 0.02 0.02 0.02 0.03 0.04 0.04 0.05 0.04 0.03 0.02 0.04 0.04 0.03 0.01 0.07 0.06 0.12 0.08 0.06 0.10 0.16 0.17 0.06 0.03 0.01 0.00 0.00 0.00 0.00 0.01 0.02 0.01 0.01 0.05 0.03 0.00 0.00 0.00 0.00 0.00
0.00 0.00 0.00 0.03 0.00 0.00 0.07 0.08 0.07 0.06 0.07 0.08 0.09 0.10 0.06 0.09 0.10 0.09 0.05 0.08 0.12 0.16 0.22 0.32 0.39 0.26 0.12 0.05 0.01 0.00 0.00 0.00 0.01 0.04 0.05 0.02 0.01 0.05 0.03 0.01 0.00 0.00 0.00 0.00
0.00 0.00 0.00 0.02 0.01 0.02 0.06 0.02 0.01 0.01 0.06 0.08 0.03 0.07 0.13 0.13 0.13 0.09 0.07 0.07 0.16 0.17 0.12 0.11 0.04 0.10 0.16 0.19 0.16 0.16 0.16 0.17 0.11 0.09 0.04 0.02 0.01 0.02 0.05 0.01 0.00 0.00 0.00 0.00
0.01 0.00 0.02 0.03 0.04 0.00 0.00 0.00 0.00 0.00 0.01 0.01 0.02 0.00 0.01 0.04 0.02 0.01 0.03 0.05 0.04 0.06 0.04 0.02 0.01 0.02 0.03 0.04 0.16 0.26 0.26 0.21 0.13 0.08 0.02 0.01 0.01 0.00 0.01 0.01 0.00 0.00 0.00 0.00
0.02 0.02 0.02 0.00 0.00 0.00 0.00 0.00 0.00 0.00 0.00 0.00 0.00 0.00 0.00 0.00 0.00 0.00 0.01 0.02 0.05 0.02 0.01 0.01 0.01 0.01 0.00 0.02 0.07 0.08 0.06 0.05 0.02 0.00 0.00 0.01 0.01 0.02 0.01 0.00 0.00 0.00 0.00 0.00
0.04 0.02 0.04 0.02 0.01 0.00 0.00 0.00 0.00 0.00 0.00 0.00 0.00 0.00 0.00 0.00 0.00 0.00 0.00 0.01 0.00 0.01 0.00 0.00 0.00 0.00 0.00 0.00 0.01 0.01 0.01 0.01 0.00 0.01 0.02 0.03 0.01 0.01 0.01 0.02 0.01 0.01 0.03 0.02
0.05 0.04 0.01 0.01 0.01 0.02 0.02 0.00 0.00 0.00 0.00 0.00 0.00 0.00 0.00 0.00 0.00 0.00 0.00 0.01 0.01 0.01 0.01 0.00 0.00 0.00 0.00 0.00 0.01 0.01 0.01 0.01 0.01 0.01 0.00 0.00 0.00 0.00 0.00 0.00 0.00 0.00 0.00 0.00
MSLP
1007.76 1007.32 1006.85 1006.59 1006.20 1006.17 1006.79 1007.06 1007.62 1007.41 1007.01 1006.49 1005.79 1004.68 1003.68 1003.31 1003.21 1003.24 1003.11 1002.92 1003.28 1003.44 1003.98 1004.57 1005.37 1005.89 1006.44 1007.44 1008.00 1008.74 1009.57 1010.27 1010.47 1010.62 1011.08 1011.57 1011.87 1012.05 1012.37 1012.60 1012.67 1012.84 1013.01 1013.16
1008.66 1007.83 1007.49 1007.24 1006.98 1007.03 1007.10 1007.66 1007.46 1007.72 1008.01 1007.71 1006.97 1005.15 1004.54 1004.57 1003.89 1003.44 1003.51 1003.36 1003.45 1003.69 1004.03 1004.36 1004.92 1005.24 1005.84 1006.63 1007.38 1008.04 1008.94 1009.27 1009.90 1010.34 1010.64 1010.97 1011.32 1011.67 1011.94 1012.11 1012.26 1012.61 1012.81 1012.90
1009.69 1008.76 1008.31 1008.26 1008.43 1008.29 1008.83 1009.63 1009.51 1010.49 1011.38 1009.39 1008.34 1007.30 1006.75 1006.02 1005.76 1005.38 1005.38 1005.90 1005.70 1005.42 1005.43 1004.77 1005.25 1005.16 1005.59 1006.12 1006.78 1007.35 1008.02 1008.58 1009.14 1009.78 1010.29 1010.55 1010.66 1011.17 1011.47 1011.57 1012.04 1012.39 1012.31 1012.44
1010.77 1010.00 1009.78 1009.26 1009.23 1009.14 1009.97 1010.97 1011.57 1012.11 1011.77 1011.27 1010.33 1008.94 1007.95 1007.25 1006.96 1006.36 1006.28 1006.56 1006.45 1006.30 1006.06 1006.26 1005.41 1005.29 1006.00 1005.82 1006.34 1006.90 1007.45 1007.89 1008.40 1009.01 1009.55 1009.97 1010.41 1010.75 1010.90 1011.05 1011.33 1011.87 1011.98 1012.20
1011.34 1011.02 1010.27 1009.70 1010.04 1010.36 1010.40 1011.59 1012.12 1012.37 1012.13 1011.72 1010.91 1009.83 1008.75 1008.08 1007.23 1007.08 1007.03 1006.88 1006.40 1006.33 1006.11 1006.17 1006.41 1006.06 1005.43 1006.57 1006.36 1006.49 1007.10 1007.45 1007.87 1008.42 1009.00 1009.40 1009.85 1010.39 1010.78 1011.00 1011.27 1011.50 1011.68 1012.00
1011.84 1011.90 1011.71 1011.74 1010.85 1010.27 1010.41 1011.70 1012.24 1012.53 1012.50 1012.33 1011.76 1011.56 1011.28 1009.76 1008.49 1007.36 1007.11 1006.71 1006.16 1005.89 1005.44 1005.56 1006.23 1006.26 1005.61 1005.40 1007.04 1006.78 1006.30 1006.90 1007.34 1007.84 1008.63 1009.11 1009.56 1009.88 1010.20 1010.64 1011.00 1011.22 1011.48 1011.71
1012.86 1012.69 1012.64 1012.02 1011.22 1010.29 1011.27 1012.52 1012.22 1012.43 1012.56 1012.29 1012.23 1011.89 1011.29 1010.52 1009.27 1008.51 1007.72 1007.42 1007.14 1006.84 1006.18 1005.92 1006.08 1006.24 1005.90 1004.87 1005.24 1007.41 1007.24 1006.47 1007.04 1007.38 1008.00 1008.80 1009.28 1009.67 1010.11 1010.62 1010.89 1011.21 1011.57 1011.59
1014.06 1013.84 1013.43 1012.58 1011.80 1012.31 1013.19 1012.64 1012.39 1012.33 1012.28 1012.22 1011.75 1011.35 1010.87 1010.33 1010.04 1008.98 1007.98 1007.49 1007.56 1007.42 1006.61 1005.60 1004.87 1005.22 1004.93 1004.69 1003.81 1006.55 1008.03 1006.87 1006.81 1007.44 1007.75 1008.50 1009.21 1009.68 1010.11 1010.63 1010.93 1011.38 1011.72 1011.99
1015.07 1014.56 1014.05 1013.34 1013.23 1013.18 1012.96 1012.80 1012.44 1012.23 1011.87 1011.72 1011.28 1010.98 1010.19 1009.88 1009.38 1008.73 1007.83 1007.08 1006.68 1006.84 1006.48 1005.21 1005.40 1004.72 1005.12 1005.37 1005.18 1007.01 1007.51 1006.57 1006.45 1007.09 1007.56 1008.19 1009.42 1009.90 1010.52 1010.94 1011.12 1011.71 1012.09 1012.21
1015.17 1014.54 1014.15 1013.41 1013.05 1012.72 1012.46 1012.33 1011.96 1011.62 1011.10 1010.74 1010.66 1010.20 1009.80 1008.85 1008.44 1007.79 1007.28 1006.74 1006.48 1006.70 1006.34 1006.19 1006.85 1006.30 1005.53 1004.76 1004.92 1005.99 1006.00 1005.52 1006.13 1006.75 1007.80 1008.31 1008.89 1009.74 1010.22 1010.70 1011.29 1011.62 1012.04 1012.15
1015.43 1014.66 1013.95 1012.90 1013.04 1012.83 1012.26 1011.81 1011.54 1011.26 1010.82 1010.27 1009.93 1009.53 1008.77 1007.74 1007.64 1007.17 1006.67 1006.26 1006.23 1005.96 1005.59 1005.67 1006.55 1006.54 1006.28 1005.20 1004.55 1003.72 1003.98 1004.66 1006.00 1006.66 1007.70 1008.54 1009.42 1010.02 1010.38 1010.67 1010.91 1011.24 1011.39 1011.74
1015.55 1014.85 1014.84 1013.53 1012.76 1012.21 1011.94 1011.54 1011.15 1010.87 1010.31 1009.84 1009.31 1008.84 1008.11 1007.37 1006.63 1006.42 1006.13 1005.61 1005.51 1005.37 1005.28 1004.86 1005.54 1006.30 1005.15 1003.97 1003.78 1003.84 1004.06 1005.12 1005.75 1007.24 1008.21 1008.77 1009.42 1010.44 1010.75 1011.08 1011.41 1011.21 1011.04 1011.25
1014.99 1014.48 1014.16 1013.26 1012.42 1011.84 1011.58 1010.94 1010.43 1010.07 1009.64 1009.09 1008.25 1007.86 1007.42 1006.92 1006.23 1005.62 1005.47 1005.13 1004.56 1004.62 1004.38 1004.85 1004.70 1004.11 1003.82 1002.91 1003.78 1004.67 1004.51 1005.71 1006.48 1007.67 1008.14 1008.93 1009.21 1009.94 1010.67 1011.44 1011.65 1011.82 1011.87 1011.55
1014.56 1014.33 1013.69 1012.79 1012.03 1011.23 1010.80 1009.94 1009.42 1008.91 1008.40 1007.90 1007.34 1006.77 1006.14 1005.67 1005.26 1004.84 1004.58 1004.29 1004.18 1003.97 1003.37 1003.74 1004.35 1004.11 1004.39 1004.76 1002.89 1003.68 1005.03 1005.22 1006.15 1007.05 1007.41 1008.39 1008.77 1009.30 1009.79 1010.43 1011.00 1011.59 1011.88 1012.05
1013.97 1013.73 1013.14 1012.12 1011.14 1010.52 1009.90 1009.01 1008.52 1008.05 1007.41 1006.74 1006.68 1006.26 1005.47 1005.12 1004.71 1004.42 1003.84 1003.47 1003.57 1003.17 1002.78 1002.92 1003.43 1003.75 1002.77 1002.45 1003.65 1004.67 1004.86 1004.38 1004.37 1005.08 1006.04 1007.24 1008.08 1008.82 1009.13 1010.09 1010.46 1010.67 1011.53 1012.05
1013.27 1012.82 1012.05 1011.32 1010.12 1009.29 1008.68 1008.10 1007.69 1007.11 1006.70 1005.96 1005.30 1005.19 1004.75 1004.46 1004.18 1003.79 1003.60 1003.59 1003.65 1003.21 1002.54 1002.65 1002.65 1002.08 1002.54 1002.95 1003.34 1003.21 1004.19 1004.48 1004.53 1004.27 1005.70 1006.76 1007.34 1008.13 1008.79 1009.34 1010.12 1010.45 1010.55 1011.00
1012.99 1011.93 1011.00 1010.20 1009.35 1008.26 1007.58 1007.05 1006.58 1006.14 1005.66 1005.21 1004.62 1004.09 1003.62 1003.65 1003.55 1003.33 1002.98 1002.66 1002.60 1002.28 1001.71 1001.72 1001.76 1002.52 1002.63 1002.97 1003.49 1003.99 1004.38 1004.67 1004.83 1004.64 1005.18 1006.13 1006.87 1007.68 1008.18 1008.71 1009.24 1009.79 1009.94 1009.77
1011.90 1011.29 1010.46 1009.64 1008.73 1007.70 1006.81 1006.20 1005.66 1005.15 1004.61 1004.10 1003.83 1003.35 1003.15 1003.47 1003.24 1002.69 1002.54 1002.19 1001.69 1001.75 1001.67 1001.42 1002.22 1002.61 1003.10 1003.54 1003.84 1004.09 1004.32 1004.44 1004.68 1004.82 1005.06 1005.63 1006.27 1006.70 1007.71 1008.28 1008.46 1009.02 1009.45 1009.69
1011.07 1010.48 1009.71 1008.79 1007.95 1007.12 1006.29 1005.64 1005.27 1004.73 1003.92 1003.15 1002.90 1002.71 1002.21 1001.69 1001.78 1001.77 1001.79 1001.33 1001.01 1001.36 1001.17 1001.25 1001.66 1002.38 1002.60 1002.96 1003.58 1003.90 1004.22 1004.44 1004.65 1004.62 1004.96 1005.40 1006.04 1006.64 1007.35 1007.65 1007.95 1008.39 1008.68 1009.26
1010.36 1009.77 1009.24 1008.34 1007.50 1006.83 1006.09 1005.27 1004.81 1004.30 1003.65 1002.99 1002.62 1002.01 1001.52 1001.17 1001.23 1001.20 1001.23 1000.92 1000.55 1000.36 1000.49 1000.94 1001.51 1001.64 1002.25 1002.44 1002.73 1003.37 1003.95 1004.21 1004.33 1004.60 1005.12 1005.65 1006.02 1006.55 1007.00 1007.25 1007.37 1007.62 1007.90 1008.41
1010.54 1009.91 1009.22 1008.52 1007.69 1006.91 1006.29 1005.46 1004.84 1004.25 1003.67 1003.17 1002.71 1002.26 1001.59 1001.16 1000.94 1000.49 1000.35 1000.20 999.83 999.77 1000.03 1000.53 1000.91 1001.28 1001.70 1001.95 1002.37 1003.03 1003.41 1003.72 1003.87 1004.51 1005.17 1005.25 1005.83 1005.97 1006.51 1006.69 1006.73 1006.74 1006.90 1007.18
1010.82 1010.09 1009.25 1008.77 1008.10 1007.34 1006.81 1006.12 1005.45 1004.81 1004.13 1003.34 1002.85 1002.27 1002.02 1001.88 1001.39 1001.40 1000.98 1000.53 1000.22 1000.27 1000.45 1000.81 1001.18 1001.18 1001.47 1001.82 1002.35 1002.78 1003.28 1003.40 1003.96 1004.40 1004.80 1005.04 1005.45 1005.62 1005.68 1005.74 1005.74 1005.90 1005.89 1006.11
1010.99 1010.23 1009.54 1009.08 1008.61 1008.05 1007.45 1006.75 1006.13 1005.46 1004.92 1004.33 1003.77 1003.30 1002.82 1002.49 1002.20 1001.96 1001.67 1001.36 1001.25 1001.00 1000.96 1001.24 1000.99 1001.55 1001.96 1002.15 1002.29 1002.54 1002.86 1003.47 1003.78 1003.82 1004.34 1004.97 1004.99 1004.95 1005.04 1005.25 1005.11 1005.03 1005.24 1005.12
1010.88 1010.28 1009.94 1009.33 1008.72 1008.47 1008.14 1007.56 1006.99 1006.33 1005.79 1005.29 1004.80 1004.22 1003.63 1003.16 1002.92 1002.75 1002.38 1001.99 1001.39 1001.43 1001.73 1001.88 1002.03 1002.44 1002.44 1002.41 1002.46 1002.64 1003.21 1003.34 1003.83 1004.12 1004.35 1004.27 1003.88 1004.11 1004.32 1004.53 1004.50 1004.08 1004.18 1004.29
1010.83 1010.36 1010.20 1009.66 1009.13 1009.02 1008.78 1008.38 1007.85 1007.23 1006.67 1006.20 1005.70 1005.18 1004.77 1004.41 1004.12 1003.69 1003.03 1002.40 1002.13 1002.19 1002.38 1002.51 1002.49 1002.56 1002.59 1002.64 1003.08 1003.31 1003.62 1003.77 1003.78 1002.57 1003.07 1003.22 1003.66 1003.89 1004.01 1004.03 1003.63 1003.21 1003.18 1003.09
1010.60 1010.22 1010.01 1009.69 1009.40 1009.30 1009.14 1008.96 1008.67 1008.27 1007.79 1007.42 1006.89 1006.34 1005.80 1005.25 1004.61 1004.07 1003.64 1003.05 1002.75 1002.91 1002.91 1002.62 1002.53 1002.59 1002.74 1002.91 1003.02 1003.23 1003.38 1003.26 1003.15 1002.95 1002.88 1003.33 1003.61 1003.79 1003.41 1002.66 1002.76 1003.00 1003.37 1002.95
1010.42 1009.68 1009.77 1009.58 1009.44 1009.29 1009.12 1009.15 1009.05 1008.94 1008.54 1008.17 1007.74 1007.19 1006.71 1006.14 1005.71 1005.18 1004.67 1004.20 1004.11 1003.89 1003.62 1003.29 1003.02 1002.90 1002.73 1002.98 1003.28 1003.56 1003.74 1003.90 1003.68 1003.96 1004.21 1004.54 1004.42 1004.43 1004.34 1003.68 1003.92 1003.35 1003.92 1004.16
Thickness
5760 5762 5760 5757 5765 5769 5760 5757 5745 5752 5753 5763 5771 5786 5801 5808 5809 5805 5806 5815 5815 5816 5814 5807 5805 5805 5800 5792 5789 5782 5774 5770 5771 5773 5772 5769 5769 5771 5769 5771 5772 5774 5775 5776
5738 5753 5750 5746 5755 5754 5759 5754 5759 5754 5739 5753 5760 5783 5784 5787 5801 5806 5806 5808 5809 5812 5812 5808 5805 5807 5802 5794 5789 5785 5776 5774 5770 5768 5770 5770 5768 5767 5768 5768 5769 5770 5770 5772
5705 5731 5728 5718 5723 5728 5730 5715 5719 5704 5698 5734 5742 5756 5762 5769 5777 5784 5786 5778 5781 5787 5795 5804 5800 5805 5800 5794 5791 5789 5782 5777 5772 5767 5764 5766 5768 5766 5765 5766 5765 5764 5768 5768
5689 5703 5681 5711 5719 5721 5706 5700 5695 5691 5693 5704 5718 5733 5748 5758 5761 5769 5773 5770 5774 5776 5784 5785 5796 5799 5796 5798 5792 5788 5785 5783 5779 5773 5768 5766 5764 5764 5764 5764 5761 5761 5763 5764
5682 5672 5693 5695 5696 5694 5694 5684 5684 5682 5685 5691 5705 5719 5728 5742 5753 5757 5759 5763 5769 5774 5778 5781 5782 5786 5794 5787 5788 5785 5782 5783 5781 5777 5771 5768 5764 5760 5759 5758 5759 5760 5760 5760
5673 5669 5660 5667 5688 5701 5696 5666 5676 5673 5674 5677 5683 5677 5683 5712 5731 5744 5750 5756 5762 5771 5777 5779 5776 5775 5785 5789 5777 5780 5783 5783 5782 5778 5768 5764 5762 5761 5761 5759 5758 5759 5759 5759
5656 5655 5647 5666 5675 5691 5655 5652 5670 5669 5666 5669 5667 5669 5679 5689 5709 5724 5733 5735 5742 5750 5763 5766 5764 5764 5769 5782 5781 5766 5766 5778 5778 5777 5772 5763 5761 5760 5757 5754 5755 5755 5754 5756
5636 5633 5635 5656 5660 5648 5644 5653 5657 5658 5658 5656 5661 5665 5670 5677 5683 5702 5716 5722 5726 5728 5741 5755 5764 5762 5765 5772 5785 5764 5752 5760 5770 5768 5768 5761 5755 5754 5753 5751 5749 5747 5747 5747
5626 5621 5633 5638 5639 5637 5638 5637 5642 5643 5648 5648 5652 5655 5664 5668 5676 5686 5700 5713 5721 5721 5725 5738 5738 5750 5750 5755 5751 5741 5741 5753 5765 5764 5763 5760 5749 5748 5745 5744 5744 5741 5740 5741
5623 5630 5626 5634 5636 5636 5635 5633 5637 5640 5644 5645 5643 5648 5652 5667 5674 5687 5695 5704 5711 5708 5714 5717 5709 5725 5737 5745 5744 5730 5740 5754 5758 5760 5753 5754 5751 5747 5744 5742 5738 5738 5736 5738
5613 5622 5628 5637 5628 5624 5627 5631 5631 5632 5633 5636 5637 5640 5650 5663 5670 5677 5688 5695 5701 5707 5711 5714 5705 5706 5709 5724 5739 5728 5745 5754 5750 5753 5747 5742 5737 5737 5736 5735 5736 5736 5737 5736
5604 5616 5608 5618 5622 5621 5619 5622 5623 5620 5620 5623 5629 5634 5645 5659 5665 5668 5678 5686 5693 5698 5704 5713 5708 5691 5706 5724 5734 5724 5741 5739 5744 5737 5732 5732 5730 5724 5722 5722 5722 5726 5729 5730
5612 5617 5612 5614 5619 5618 5615 5619 5621 5619 5618 5620 5627 5631 5637 5647 5657 5665 5670 5677 5690 5694 5702 5701 5703 5706 5711 5717 5711 5716 5728 5720 5727 5722 5725 5721 5724 5721 5718 5713 5711 5712 5714 5719
5610 5609 5608 5611 5612 5616 5616 5623 5625 5625 5625 5627 5629 5632 5640 5647 5655 5661 5668 5674 5681 5693 5700 5698 5695 5701 5698 5693 5703 5710 5712 5719 5721 5720 5724 5717 5717 5717 5717 5715 5713 5711 5706 5707
5609 5606 5607 5612 5617 5618 5618 5625 5625 5624 5627 5630 5625 5627 5636 5643 5647 5654 5664 5671 5678 5689 5696 5697 5696 5698 5711 5718 5710 5704 5706 5725 5734 5732 5727 5718 5715 5713 5715 5708 5708 5709 5702 5699
5613 5612 5613 5613 5620 5623 5624 5624 5623 5625 5626 5631 5635 5633 5639 5639 5640 5647 5652 5657 5665 5677 5690 5693 5696 5707 5709 5708 5708 5715 5713 5720 5723 5725 5716 5708 5708 5708 5707 5707 5701 5699 5701 5701
5609 5616 5621 5621 5622 5627 5629 5630 5629 5629 5629 5630 5635 5639 5642 5640 5638 5642 5651 5659 5666 5674 5688 5694 5696 5694 5699 5702 5705 5705 5705 5706 5709 5711 5708 5702 5704 5702 5702 5703 5698 5695 5698 5703
5615 5617 5618 5619 5621 5627 5631 5633 5634 5634 5635 5638 5638 5642 5641 5635 5638 5646 5651 5659 5667 5670 5679 5688 5685 5685 5687 5689 5690 5693 5698 5699 5700 5703 5704 5702 5700 5702 5696 5693 5694 5689 5689 5693
5620 5619 5622 5625 5627 5630 5631 5632 5633 5635 5639 5643 5644 5644 5650 5655 5653 5655 5656 5664 5671 5670 5676 5680 5679 5678 5684 5687 5684 5684 5687 5690 5693 5698 5697 5696 5694 5692 5688 5687 5688 5684 5684 5684
5621 5623 5622 5625 5630 5630 5630 5634 5634 5636 5640 5643 5644 5649 5654 5658 5658 5659 5660 5665 5671 5677 5679 5676 5675 5678 5679 5684 5685 5682 5680 5683 5686 5689 5690 5686 5683 5681 5678 5680 5681 5680 5680 5679
5615 5618 5621 5622 5626 5628 5628 5632 5633 5635 5638 5639 5640 5643 5649 5653 5656 5663 5664 5665 5673 5677 5677 5675 5676 5676 5679 5681 5681 5679 5679 5680 5682 5679 5677 5680 5676 5678 5673 5674 5677 5677 5677 5678
5612 5615 5620 5620 5622 5623 5624 5626 5628 5630 5633 5636 5638 5643 5642 5643 5648 5647 5653 5660 5668 5668 5669 5668 5668 5671 5671 5672 5672 5673 5672 5675 5674 5673 5674 5677 5675 5673 5673 5673 5677 5677 5676 5675
5608 5612 5617 5617 5617 5617 5618 5621 5622 5625 5626 5629 5633 5637 5639 5641 5643 5644 5645 5651 5653 5657 5661 5661 5657 5659 5659 5660 5665 5667 5670 5668 5669 5672 5669 5667 5669 5672 5670 5670 5672 5675 5673 5677
5606 5609 5610 5613 5615 5613 5612 5615 5617 5619 5620 5621 5623 5628 5633 5637 5638 5641 5644 5645 5647 5648 5648 5651 5652 5650 5652 5655 5658 5660 5659 5663 5663 5662 5661 5663 5670 5672 5670 5670 5670 5674 5675 5677
5604 5607 5608 5608 5610 5608 5607 5608 5610 5612 5614 5614 5617 5620 5623 5625 5628 5632 5639 5644 5644 5644 5643 5641 5641 5642 5644 5646 5646 5648 5650 5652 5656 5657 5665 5666 5662 5663 5664 5665 5668 5672 5674 5678
5604 5605 5606 5608 5608 5607 5604 5602 5602 5603 5603 5606 5607 5610 5614 5618 5624 5629 5632 5637 5639 5636 5636 5638 5640 5640 5639 5640 5643 5644 5645 5649 5654 5658 5660 5657 5656 5655 5658 5665 5665 5665 5665 5671
5604 5609 5609 5606 5604 5604 5605 5601 5599 5598 5598 5598 5601 5604 5606 5610 5611 5614 5616 5622 5623 5625 5629 5631 5633 5634 5638 5636 5635 5635 5637 5638 5642 5641 5640 5637 5641 5642 5643 5650 5648 5658 5656 5656